EA5LR-10 Weather Reports


time (UTC)temp
C
wind
direction
speed
KPH
gust
KPH
rain 1hr
cm
rain 24hr
cm
rain mn
cm
humidity
%
barometer
mb
20260510181705 21 267 9.7 12.9 0.00 0.00 20.98 62 1012.9
20260510181205 21 132 8.0 14.5 0.00 0.00 20.98 62 1012.9
20260510180704 21 230 8.0 9.7 0.00 0.00 20.98 62 1012.9
20260510180204 21 239 12.9 20.9 0.00 0.00 20.98 61 1012.9
20260510175705 22 240 9.7 12.9 0.00 0.00 20.98 61 1012.9
20260510175205 22 310 9.7 14.5 0.00 0.00 20.98 63 1012.9
20260510174704 22 189 8.0 14.5 0.00 0.00 20.98 63 1012.9
20260510174205 22 232 12.9 20.9 0.00 0.00 20.98 62 1012.7
20260510173704 22 203 11.3 20.9 0.00 0.00 20.98 61 1012.9
20260510173204 22 201 9.7 17.7 0.00 0.00 20.98 59 1013.1
20260510172704 22 223 6.4 9.7 0.00 0.00 20.98 61 1012.9
20260510172204 22 169 8.0 12.9 0.00 0.00 20.98 60 1013.0
20260510171704 22 156 8.0 14.5 0.00 0.00 20.98 64 1012.9
20260510170723 22 155 9.7 12.9 0.00 0.00 20.98 62 1012.7
20260510170223 22 187 8.0 12.9 0.00 0.00 20.98 63 1013.0
20260510153622 21 253 8.0 11.3 0.00 0.00 20.98 71 1013.1
20260510153122 21 281 11.3 14.5 0.00 0.00 20.98 71 1013.1
20260510152622 21 178 11.3 17.7 0.00 0.00 20.98 74 1013.3
20260510150119 21 249 11.3 22.5 0.00 0.00 20.98 76 1013.6
20260510142619 21 78 4.8 9.7 0.00 0.00 20.98 78 1014.0
20260510132618 22 199 8.0 9.7 0.00 0.00 20.98 74 1014.3
20260510125409 21 149 8.0 16.1 0.00 0.00 20.98 79 1014.8
20260510124909 20 133 16.1 17.7 0.00 0.00 20.98 80 1014.8
20260510124409 21 115 16.1 22.5 0.00 0.00 20.98 81 1015.0
20260510123909 21 97 8.0 11.3 0.00 0.00 20.98 81 1014.9
20260510123409 21 101 4.8 4.8 0.00 0.00 20.98 81 1015.0
20260510122909 21 127 8.0 12.9 0.00 0.00 20.98 81 1015.3
20260510122409 21 105 6.4 9.7 0.00 0.00 20.98 81 1015.3
20260510121909 21 132 6.4 9.7 0.00 0.00 20.98 80 1015.3
20260510121409 21 219 6.4 11.3 0.00 0.00 20.98 80 1015.5
20260510120909 21 182 6.4 8.0 0.00 0.00 20.98 79 1015.6
20260510120409 21 215 1.6 3.2 0.00 0.00 20.98 79 1015.7
20260510115909 21 160 1.6 3.2 0.00 0.00 20.98 80 1015.8
20260510115409 21 194 4.8 9.7 0.00 0.00 20.98 80 1015.8
20260510114909 21 136 4.8 12.9 0.00 0.00 20.98 80 1015.8
20260510114409 20 177 3.2 3.2 0.00 0.00 20.98 83 1015.8
20260510113619 20 155 6.4 12.9 0.00 0.00 20.98 84 1016.0
20260510113119 20 131 6.4 9.7 0.00 0.00 20.98 84 1016.1
20260510112619 20 113 6.4 8.0 0.00 0.00 20.98 84 1016.1
20260510112119 19 125 8.0 11.3 0.00 0.00 20.98 84 1016.4
20260510111619 20 123 6.4 11.3 0.00 0.00 20.98 83 1016.4
20260510111119 20 121 4.8 9.7 0.00 0.00 20.98 84 1016.4
20260510110119 19 126 9.7 12.9 0.00 0.00 20.98 82 1016.5
20260510105619 20 107 3.2 4.8 0.00 0.00 20.98 82 1016.6
20260510105119 20 116 1.6 3.2 0.00 0.00 20.98 82 1016.5
20260510104619 20 103 8.0 14.5 0.00 0.00 20.98 81 1016.5
20260510104119 20 172 1.6 4.8 0.00 0.00 20.98 80 1016.7
20260510103619 19 150 6.4 9.7 0.00 0.00 20.98 80 1016.6
20260510103119 19 111 6.4 9.7 0.00 0.00 20.98 79 1016.5
20260510102616 19 138 3.2 3.2 0.00 0.00 20.98 79 1016.6
20260510102116 19 118 1.6 3.2 0.00 0.00 20.98 80 1016.6
20260510101616 19 118 1.6 3.2 0.00 0.00 20.98 80 1016.6
20260510101116 19 89 6.4 8.0 0.00 0.00 20.98 80 1016.5
20260510100616 19 91 4.8 8.0 0.00 0.00 20.98 78 1016.5
20260510100116 19 137 6.4 9.7 0.00 0.00 20.98 77 1016.5
20260510095616 19 73 8.0 9.7 0.00 0.00 20.98 77 1016.5
20260510095116 19 90 6.4 8.0 0.00 0.00 20.98 78 1016.4
20260510094616 19 80 8.0 9.7 0.00 0.00 20.98 78 1016.5
20260510094116 19 81 1.6 3.2 0.00 0.00 20.98 79 1016.5
20260510093616 19 135 6.4 9.7 0.00 0.00 20.98 79 1016.4
20260510093116 19 100 4.8 8.0 0.00 0.00 20.98 78 1016.6
20260510092616 18 91 9.7 11.3 0.00 0.00 20.98 77 1016.3
20260510092116 19 122 6.4 9.7 0.00 0.00 20.98 77 1016.4
20260510091616 19 91 6.4 9.7 0.00 0.00 20.98 76 1016.4
20260510091116 19 111 4.8 8.0 0.00 0.00 20.98 77 1016.4
20260510090546 19 92 4.8 4.8 0.00 0.00 20.98 77 1016.4
20260510090046 20 117 4.8 4.8 0.00 0.00 20.98 77 1016.5
20260510084742 19 119 1.6 3.2 0.00 0.00 20.98 79 1016.5
20260510084242 20 117 8.0 9.7 0.00 0.00 20.98 77 1016.6
20260510082739 20 163 0.0 0.0 0.00 0.00 20.98 76 1016.7
20260510082234 20 164 1.6 1.6 0.00 0.00 20.98 76 1016.7
20260510081734 19 164 3.2 3.2 0.00 0.00 20.98 77 1016.6
20260510080115 19 272 1.6 1.6 0.00 0.00 20.98 77 1016.8
20260510075615 18 271 1.6 1.6 0.00 0.00 20.98 78 1016.8
20260510074621 18 271 0.0 1.6 0.00 0.00 20.98 78 1016.7
20260510074121 18 271 0.0 1.6 0.00 0.00 20.98 79 1016.8
20260510073621 18 271 0.0 0.0 0.00 0.00 20.98 79 1017.0
20260510073121 18 274 0.0 0.0 0.00 0.00 20.98 78 1017.0
20260510072621 18 274 0.0 0.0 0.00 0.00 20.98 79 1016.9
20260510072121 18 274 0.0 0.0 0.00 0.00 20.98 81 1016.9
20260510071621 17 275 1.6 1.6 0.00 0.00 20.98 82 1016.8
20260510071121 17 274 1.6 1.6 0.00 0.00 20.98 82 1016.6
20260510070621 17 275 1.6 1.6 0.00 0.00 20.98 83 1016.6
20260510070121 17 275 1.6 3.2 0.00 0.00 20.98 84 1016.6
20260510065619 16 275 1.6 3.2 0.00 0.00 20.98 85 1016.3
20260510065119 17 263 3.2 3.2 0.00 0.00 20.98 85 1016.6
20260510064619 17 263 3.2 3.2 0.00 0.00 20.98 86 1016.5
20260510064119 16 263 3.2 3.2 0.00 0.00 20.98 86 1016.4
20260510063619 16 263 0.0 1.6 0.00 0.00 20.98 87 1016.4
20260510063119 16 263 1.6 1.6 0.00 0.00 20.98 86 1016.5
20260510062619 16 263 0.0 0.0 0.00 0.00 20.98 87 1016.4
20260510062119 16 263 0.0 1.6 0.00 0.00 20.98 87 1016.5
20260510061619 16 263 0.0 1.6 0.00 0.00 20.98 87 1016.4
20260510061119 16 263 1.6 1.6 0.00 0.00 20.98 88 1016.7
20260510060619 16 263 0.0 0.0 0.00 0.00 20.98 88 1016.2
20260510060119 16 263 0.0 1.6 0.00 0.00 20.98 88 1016.4
20260510055619 16 263 0.0 0.0 0.00 0.00 20.98 89 1016.2
20260510055119 16 262 0.0 0.0 0.00 0.00 20.98 90 1016.3
20260510054619 16 262 0.0 0.0 0.00 0.00 20.98 90 1016.4
20260510054119 15 262 1.6 1.6 0.00 0.00 20.98 90 1016.2
20260510053619 15 262 0.0 0.0 0.00 0.00 20.98 90 1016.2
20260510053117 15 262 0.0 0.0 0.00 0.00 20.98 91 1016.2
20260510052617 15 262 0.0 0.0 0.00 0.00 20.98 91 1016.1
20260510052117 15 262 0.0 0.0 0.00 0.00 20.98 91 1016.0
20260510051617 15 262 1.6 1.6 0.00 0.00 20.98 91 1016.0
20260510051117 15 262 0.0 1.6 0.00 0.00 20.98 92 1016.0
20260510050617 15 262 0.0 0.0 0.00 0.00 20.98 92 1015.8
20260510050117 15 262 0.0 0.0 0.00 0.00 20.98 91 1015.9
20260510045617 15 262 1.6 1.6 0.00 0.00 20.98 91 1015.9
20260510045117 15 262 0.0 0.0 0.00 0.00 20.98 91 1015.9
20260510044617 15 262 1.6 3.2 0.00 0.00 20.98 91 1015.9
20260510044117 15 262 1.6 1.6 0.00 0.00 20.98 91 1015.8
20260510043617 15 262 3.2 3.2 0.00 0.00 20.98 91 1016.1
20260510043117 15 262 1.6 1.6 0.00 0.00 20.98 91 1015.8
20260510042617 15 256 1.6 1.6 0.00 0.00 20.98 91 1015.9
20260510042117 15 256 1.6 1.6 0.00 0.00 20.98 91 1015.8
20260510041617 15 256 1.6 3.2 0.00 0.00 20.98 91 1015.7
20260510041117 15 256 1.6 1.6 0.00 0.00 20.98 91 1015.8
20260510040617 15 256 1.6 1.6 0.00 0.00 20.98 91 1015.6
20260510040117 15 256 1.6 1.6 0.00 0.00 20.98 91 1015.7
20260510035615 15 256 1.6 3.2 0.00 0.00 20.98 91 1015.6
20260510035115 15 256 1.6 1.6 0.00 0.00 20.98 91 1015.9
20260510034615 15 256 1.6 3.2 0.00 0.00 20.98 91 1015.7
20260510034115 15 256 0.0 1.6 0.00 0.00 20.98 91 1015.9
20260510033615 15 256 0.0 1.6 0.00 0.00 20.98 91 1015.7
20260510033115 15 256 1.6 1.6 0.00 0.00 20.98 91 1015.9
20260510032615 15 256 0.0 1.6 0.00 0.00 20.98 91 1015.8
20260510032115 15 256 1.6 3.2 0.00 0.00 20.98 91 1015.8
20260510031615 15 256 0.0 1.6 0.00 0.00 20.98 91 1015.7
20260510031115 15 256 1.6 1.6 0.00 0.00 20.98 91 1015.7
20260510030615 15 256 0.0 1.6 0.00 0.00 20.98 92 1015.6
20260510030115 15 256 3.2 3.2 0.00 0.00 20.98 92 1015.7
20260510025615 15 256 1.6 1.6 0.00 0.00 20.98 92 1015.7
20260510025115 15 256 1.6 1.6 0.00 0.00 20.98 92 1015.8
20260510024616 15 256 0.0 0.0 0.00 0.00 20.98 92 1015.8
20260510024115 15 256 3.2 3.2 0.00 0.00 20.98 91 1015.5
20260510023615 15 256 1.6 3.2 0.00 0.00 20.98 91 1015.5
20260510023115 15 256 1.6 1.6 0.00 0.00 20.98 91 1015.7
20260510022615 15 256 4.8 4.8 0.00 0.00 20.98 91 1015.6
20260510022115 15 256 3.2 3.2 0.00 0.00 20.98 91 1015.6
20260510021615 15 256 0.0 1.6 0.00 0.00 20.98 90 1015.4
20260510021115 15 256 3.2 3.2 0.00 0.00 20.98 90 1015.4
20260510020614 15 253 1.6 1.6 0.00 0.00 20.98 90 1015.3
20260510020114 15 246 3.2 3.2 0.00 0.00 20.98 90 1015.4
20260510015614 15 245 1.6 3.2 0.00 0.00 20.98 90 1015.5
20260510015114 15 245 1.6 1.6 0.00 0.00 20.98 91 1015.5
20260510014614 15 245 0.0 0.0 0.00 0.00 20.98 91 1015.3
20260510014114 16 245 0.0 0.0 0.00 0.00 20.98 91 1015.4
20260510013614 16 245 1.6 1.6 0.00 0.00 20.98 91 1015.2
20260510013114 16 245 3.2 3.2 0.00 0.00 20.98 90 1015.2
20260510012614 16 245 1.6 3.2 0.00 0.00 20.98 90 1015.5
20260510012114 16 245 1.6 1.6 0.00 0.00 20.98 90 1015.5
20260510011613 16 245 0.0 0.0 0.00 0.00 20.98 90 1015.4
20260510011113 16 245 0.0 1.6 0.00 0.00 20.98 90 1015.4
20260510010613 16 245 1.6 1.6 0.00 0.00 20.98 90 1015.4
20260510010113 16 245 0.0 1.6 0.00 0.00 20.98 91 1015.7
20260510005613 16 245 0.0 0.0 0.00 0.00 20.98 91 1015.6
20260510005113 16 245 0.0 0.0 0.00 0.00 20.98 91 1015.6
20260510004613 16 245 0.0 0.0 0.00 0.00 20.98 91 1015.7
20260510004112 16 245 0.0 0.0 0.00 0.00 20.98 91 1015.9
20260510003612 16 245 1.6 1.6 0.00 0.00 20.98 91 1015.8
20260510003112 16 245 0.0 1.6 0.00 0.00 20.98 90 1015.5
20260510002612 17 245 0.0 1.6 0.00 0.00 20.98 90 1015.8
20260510002112 17 245 1.6 1.6 0.00 0.00 20.98 90 1015.8
20260510001613 17 245 0.0 0.0 0.00 0.00 20.98 90 1015.7
20260510001112 17 245 3.2 3.2 0.00 0.00 20.98 90 1016.0
20260510000612 17 244 1.6 3.2 0.00 0.00 20.98 90 1015.9
20260510000112 17 244 0.0 0.0 0.00 0.00 20.98 89 1015.8
20260509235612 17 244 0.0 0.0 0.00 0.00 20.98 89 1015.9
20260509235111 17 244 3.2 3.2 0.00 0.00 20.98 89 1016.1
20260509234611 17 235 0.0 1.6 0.00 0.00 20.98 89 1016.0
20260509234111 17 206 4.8 4.8 0.00 0.00 20.98 89 1016.2
20260509233611 17 245 1.6 1.6 0.00 0.00 20.98 89 1016.1
20260509233111 17 241 1.6 3.2 0.00 0.00 20.98 89 1016.2
20260509232611 17 203 3.2 4.8 0.00 0.00 20.98 88 1016.0
20260509232111 17 236 1.6 3.2 0.00 0.00 20.98 88 1016.1
20260509231611 17 238 3.2 3.2 0.00 0.00 20.98 88 1016.2
20260509231111 17 210 3.2 4.8 0.00 0.00 20.98 88 1016.1
20260509230611 17 199 1.6 3.2 0.00 0.00 20.98 88 1016.2
20260509230111 17 218 3.2 8.0 0.00 0.00 20.98 88 1016.1
20260509225611 17 231 3.2 4.8 0.00 0.00 20.98 87 1016.2
20260509225111 17 157 8.0 12.9 0.00 0.00 20.98 87 1016.3
20260509224611 17 224 3.2 3.2 0.00 0.00 20.98 87 1016.4
20260509224111 18 213 1.6 3.2 0.00 0.00 20.98 87 1016.3
20260509223611 18 157 3.2 4.8 0.00 0.00 20.98 87 1016.2
20260509223111 18 241 3.2 4.8 0.00 0.00 20.98 86 1016.2
20260509222609 18 245 3.2 4.8 0.00 0.00 20.98 86 1016.4
20260509222109 18 207 6.4 11.3 0.00 0.00 20.98 86 1016.1
20260509221609 18 212 8.0 11.3 0.00 0.00 20.98 86 1016.1
20260509221109 18 173 4.8 9.7 0.00 0.00 20.98 85 1016.1
20260509220609 18 253 3.2 8.0 0.00 0.00 20.98 85 1016.3
20260509220109 18 187 1.6 4.8 0.00 0.00 20.98 85 1016.3
20260509215609 18 177 1.6 3.2 0.00 1.30 20.98 85 1016.4
20260509215109 17 184 3.2 4.8 0.00 1.30 20.98 84 1016.4
20260509214609 18 188 1.6 3.2 0.00 1.30 20.98 84 1016.3
20260509214109 18 198 1.6 3.2 0.00 1.30 20.98 83 1016.2
20260509213609 18 191 0.0 0.0 0.00 1.30 20.98 82 1016.3
20260509213109 18 208 6.4 9.7 0.00 1.30 20.98 82 1016.3
20260509212609 18 171 3.2 4.8 0.00 1.30 20.98 82 1016.2
20260509212109 18 206 1.6 1.6 0.00 1.30 20.98 81 1016.1
20260509211608 18 245 9.7 14.5 0.00 1.30 20.98 80 1016.3